Hlavní strana
METAR-TAF:

METAR-TAF

Letiště :

Emporia-Greensville Regional Airport

Emporia, Virginie, Spojené státy americké

zeměpisná šířka: 36-41-13N, zeměpisná délka: 077-28-58W, výška: 39 m

Aktuální stav počasí

Zpráva byla vytvořena před 18 minutami, v 01:35 UTC
Jižní vítr 3 kt
Teplota 22°C
Vlhkost vzduchu 88%
Tlak 1016 hPa
Viditelnost: 16.1 km
Jasno

METAR: KEMV 300135Z AUTO 18003KT 10SM CLR 22/20 A3001 RMK AO2 T02200200

Čas: 21:53 (01:53 UTC)


TAF: chybějící

Stav a předpovědi počasí z více než 4 000 letišť (zprávy METAR a TAF).

Červené a žluté tečky na mapě představují dostupné meteorologické stanice.

Když kurzor umístíte na tečku, zobrazí se název stanice.

Pak kliknutím zobrazíte stav a předpověď počasí.

Chcete-li změnit mapu, kliknutím na zelené tlačítko se znaménkem +mapu přiblížíte, kliknutím na zelené tlačítko se znaménkem – mapu oddálíte a kliknutím na zelené šipky přejdete na sousední mapy.


METAR-TAF: